Back to catalog

IRIDIUM 33 DEB

AlivePO
NORAD 33884·DEBRIS·🇺🇸 United States

Launched Sep 14, 1997 from Baikonur Cosmodrome

Loading…

Next Passes (next 24 hours)

TLE

FreshSource: Space-Track

Epoch: Sep 14, 2026, 05:49 UTC

1 33884U 97051BD  26257.24258815  .00007514  00000-0  89057-3 0  9994
2 33884  86.3624 244.6080 0014720  71.0573 299.5994 14.84342164929260

Track IRIDIUM 33 DEB in real time with AllMySat

Download on the App Store